Time,TemperatureF,DewpointF,PressureIn,WindDirection,WindDirectionDegrees,WindSpeedMPH,WindSpeedGustMPH,Humidity,HourlyPrecipIn,Conditions,Clouds,dailyrainin,SoftwareType,DateUTC
2013-04-12 00:02:00,63.0,48.0,29.88,SSE,166,4.0,6.7,58,0.00,,,-99.99,FreeWX 2.03,2013-04-12 05:02:00,
2013-04-12 00:07:00,63.0,48.4,29.88,SSE,163,4.0,5.4,59,0.00,,,-99.99,FreeWX 2.03,2013-04-12 05:07:00,
2013-04-12 00:12:00,62.8,48.2,29.88,SSE,165,3.0,4.5,59,0.00,,,-99.99,FreeWX 2.03,2013-04-12 05:12:00,
2013-04-12 00:17:00,62.8,48.7,29.88,SSE,164,3.0,5.8,60,0.00,,,-99.99,FreeWX 2.03,2013-04-12 05:17:00,
2013-04-12 00:28:00,62.4,49.3,29.88,SSE,163,3.0,4.5,62,0.00,,,-99.99,FreeWX 2.03,2013-04-12 05:28:00,
2013-04-12 00:33:00,62.2,49.5,29.88,SSE,164,3.0,4.9,63,0.00,,,-99.99,FreeWX 2.03,2013-04-12 05:33:00,
2013-04-12 00:38:00,62.2,49.5,29.88,SSE,165,3.0,4.9,63,0.00,,,-99.99,FreeWX 2.03,2013-04-12 05:38:00,
2013-04-12 00:43:00,62.1,49.8,29.88,SSE,165,3.0,5.8,64,0.00,,,-99.99,FreeWX 2.03,2013-04-12 05:43:00,
2013-04-12 00:48:00,61.9,50.4,29.88,SSE,165,3.0,4.5,66,0.00,,,-99.99,FreeWX 2.03,2013-04-12 05:48:00,
2013-04-12 00:53:00,61.9,50.7,29.88,SSE,167,3.0,4.9,67,0.00,,,-99.99,FreeWX 2.03,2013-04-12 05:53:00,
2013-04-12 00:58:00,61.7,51.1,29.88,SSE,167,3.0,5.4,68,0.00,,,-99.99,FreeWX 2.03,2013-04-12 05:58:00,
2013-04-12 01:03:00,61.7,51.8,29.88,SSE,168,4.0,4.9,70,0.00,,,-99.99,FreeWX 2.03,2013-04-12 06:03:00,
2013-04-12 01:08:00,61.7,52.2,29.88,SSE,168,4.0,5.4,71,0.00,,,-99.99,FreeWX 2.03,2013-04-12 06:08:00,
2013-04-12 01:13:00,61.7,52.9,29.88,SSE,167,4.0,5.8,73,0.00,,,-99.99,FreeWX 2.03,2013-04-12 06:13:00,
2013-04-12 01:18:00,61.7,53.2,29.88,SSE,167,4.0,6.3,74,0.00,,,-99.99,FreeWX 2.03,2013-04-12 06:18:00,
2013-04-12 01:23:00,61.7,53.2,29.88,SSE,167,4.0,6.3,74,0.00,,,-99.99,FreeWX 2.03,2013-04-12 06:23:00,
2013-04-12 01:28:00,61.9,53.8,29.88,SSE,168,4.0,6.7,75,0.00,,,-99.99,FreeWX 2.03,2013-04-12 06:28:00,
2013-04-12 01:33:00,61.9,53.8,29.88,SSE,167,4.0,5.8,75,0.00,,,-99.99,FreeWX 2.03,2013-04-12 06:33:00,
2013-04-12 01:38:00,61.9,53.8,29.88,SSE,167,4.0,5.8,75,0.00,,,-99.99,FreeWX 2.03,2013-04-12 06:38:00,
2013-04-12 01:43:00,61.7,54.1,29.85,SSE,168,4.0,5.8,76,0.00,,,-99.99,FreeWX 2.03,2013-04-12 06:43:00,
2013-04-12 01:48:00,61.7,54.1,29.85,SSE,168,4.0,5.8,76,0.00,,,-99.99,FreeWX 2.03,2013-04-12 06:48:00,
2013-04-12 01:53:00,61.7,54.5,29.85,South,169,4.0,5.8,77,0.00,,,-99.99,FreeWX 2.03,2013-04-12 06:53:00,
2013-04-12 01:58:00,61.7,54.5,29.85,SSE,167,4.0,5.8,77,0.00,,,-99.99,FreeWX 2.03,2013-04-12 06:58:00,
2013-04-12 02:03:00,61.7,54.7,29.85,SSE,167,4.0,5.8,78,0.00,,,-99.99,FreeWX 2.03,2013-04-12 07:03:00,
2013-04-12 02:08:00,61.7,54.7,29.85,South,169,4.0,5.8,78,0.00,,,-99.99,FreeWX 2.03,2013-04-12 07:08:00,
2013-04-12 02:13:00,61.7,54.7,29.85,South,169,4.0,6.3,78,0.00,,,-99.99,FreeWX 2.03,2013-04-12 07:13:00,
2013-04-12 02:18:00,61.7,54.7,29.85,South,169,4.0,5.4,78,0.00,,,-99.99,FreeWX 2.03,2013-04-12 07:18:00,
2013-04-12 02:23:00,61.7,54.7,29.85,SSE,164,4.0,4.9,78,0.00,,,-99.99,FreeWX 2.03,2013-04-12 07:23:00,
2013-04-12 02:28:00,61.7,54.7,29.85,SSE,162,3.0,4.9,78,0.00,,,-99.99,FreeWX 2.03,2013-04-12 07:28:00,
2013-04-12 02:33:00,61.5,54.7,29.85,SSE,162,3.0,4.9,78,0.00,,,-99.99,FreeWX 2.03,2013-04-12 07:33:00,
2013-04-12 02:38:00,61.5,54.7,29.85,SSE,160,3.0,4.9,78,0.00,,,-99.99,FreeWX 2.03,2013-04-12 07:38:00,
2013-04-12 02:43:00,61.5,54.7,29.85,SSE,158,4.0,5.8,78,0.00,,,-99.99,FreeWX 2.03,2013-04-12 07:43:00,
2013-04-12 02:48:00,61.5,54.9,29.85,SSE,156,4.0,6.3,79,0.00,,,-99.99,FreeWX 2.03,2013-04-12 07:48:00,
2013-04-12 02:53:00,61.5,54.9,29.85,SSE,154,4.0,5.4,79,0.00,,,-99.99,FreeWX 2.03,2013-04-12 07:53:00,
2013-04-12 02:58:00,61.5,54.9,29.85,SSE,151,4.0,6.3,79,0.00,,,-99.99,FreeWX 2.03,2013-04-12 07:58:00,
2013-04-12 03:03:00,61.5,54.9,29.85,SSE,147,4.0,6.3,79,0.00,,,-99.99,FreeWX 2.03,2013-04-12 08:03:00,
2013-04-12 03:08:00,61.5,54.9,29.85,SE,142,4.0,6.3,79,0.00,,,-99.99,FreeWX 2.03,2013-04-12 08:08:00,
2013-04-12 03:13:00,61.5,55.2,29.85,SE,144,4.0,5.8,80,0.00,,,-99.99,FreeWX 2.03,2013-04-12 08:13:00,
2013-04-12 03:18:00,61.3,55.0,29.85,SE,146,4.0,6.9,80,0.00,,,-99.99,FreeWX 2.03,2013-04-12 08:18:00,
2013-04-12 03:23:00,61.3,55.0,29.85,SE,138,4.0,4.9,80,0.00,,,-99.99,FreeWX 2.03,2013-04-12 08:23:00,
2013-04-12 03:28:00,61.5,55.2,29.85,SE,128,4.0,5.4,80,0.00,,,-99.99,FreeWX 2.03,2013-04-12 08:28:00,
2013-04-12 03:33:00,61.5,55.2,29.85,SE,132,4.0,5.8,80,0.00,,,-99.99,FreeWX 2.03,2013-04-12 08:33:00,
2013-04-12 03:38:00,61.5,55.2,29.85,SE,142,3.0,4.9,80,0.00,,,-99.99,FreeWX 2.03,2013-04-12 08:38:00,
2013-04-12 03:43:00,61.3,55.0,29.85,SE,135,3.0,4.9,80,0.00,,,-99.99,FreeWX 2.03,2013-04-12 08:43:00,
2013-04-12 03:48:00,61.3,55.0,29.85,SE,128,3.0,5.4,80,0.00,,,-99.99,FreeWX 2.03,2013-04-12 08:48:00,
2013-04-12 03:53:00,61.3,55.0,29.85,SE,127,4.0,5.4,80,0.00,,,-99.99,FreeWX 2.03,2013-04-12 08:53:00,
2013-04-12 03:58:00,61.2,54.9,29.85,SE,134,4.0,6.3,80,0.00,,,-99.99,FreeWX 2.03,2013-04-12 08:58:00,
2013-04-12 04:03:00,61.2,54.9,29.85,SE,143,4.0,5.8,80,0.00,,,-99.99,FreeWX 2.03,2013-04-12 09:03:00,
2013-04-12 04:08:00,61.2,55.2,29.85,SSE,147,4.0,6.9,81,0.00,,,-99.99,FreeWX 2.03,2013-04-12 09:08:00,
2013-04-12 04:13:00,61.2,55.2,29.85,SSE,150,4.0,6.3,81,0.00,,,-99.99,FreeWX 2.03,2013-04-12 09:13:00,
2013-04-12 04:18:00,61.2,55.2,29.85,SSE,156,4.0,6.9,81,0.00,,,-99.99,FreeWX 2.03,2013-04-12 09:18:00,
2013-04-12 04:23:00,61.2,55.2,29.85,SSE,157,4.0,6.9,81,0.00,,,-99.99,FreeWX 2.03,2013-04-12 09:23:00,
2013-04-12 04:28:00,61.3,55.4,29.85,SSE,156,4.0,5.8,81,0.00,,,-99.99,FreeWX 2.03,2013-04-12 09:28:00,
2013-04-12 04:33:00,61.3,55.8,29.85,SSE,149,4.0,6.3,82,0.00,,,-99.99,FreeWX 2.03,2013-04-12 09:33:00,
2013-04-12 04:38:00,61.3,55.8,29.85,SE,138,4.0,5.4,82,0.00,,,-99.99,FreeWX 2.03,2013-04-12 09:38:00,
2013-04-12 04:43:00,61.3,55.8,29.85,SE,140,4.0,5.4,82,0.00,,,-99.99,FreeWX 2.03,2013-04-12 09:43:00,
2013-04-12 04:48:00,61.3,56.1,29.85,SE,145,4.0,6.3,83,0.00,,,-99.99,FreeWX 2.03,2013-04-12 09:48:00,
2013-04-12 04:53:00,61.3,56.1,29.85,SSE,153,4.0,5.4,83,0.00,,,-99.99,FreeWX 2.03,2013-04-12 09:53:00,
2013-04-12 04:58:00,61.3,56.1,29.85,SSE,155,4.0,6.3,83,0.00,,,-99.99,FreeWX 2.03,2013-04-12 09:58:00,
2013-04-12 05:03:00,61.3,56.5,29.85,SE,146,4.0,5.8,84,0.00,,,-99.99,FreeWX 2.03,2013-04-12 10:03:00,
2013-04-12 05:08:00,61.3,56.5,29.85,SE,141,4.0,5.8,84,0.00,,,-99.99,FreeWX 2.03,2013-04-12 10:08:00,
2013-04-12 05:13:00,61.3,56.5,29.85,SE,134,4.0,4.9,84,0.00,,,-99.99,FreeWX 2.03,2013-04-12 10:13:00,
2013-04-12 05:18:00,61.3,56.5,29.85,ESE,122,3.0,4.5,84,0.00,,,-99.99,FreeWX 2.03,2013-04-12 10:18:00,
2013-04-12 05:23:00,61.2,56.3,29.85,ESE,113,3.0,4.9,84,0.00,,,-99.99,FreeWX 2.03,2013-04-12 10:23:00,
2013-04-12 05:28:00,61.0,56.1,29.85,ESE,121,3.0,4.9,84,0.00,,,-99.99,FreeWX 2.03,2013-04-12 10:28:00,
2013-04-12 05:33:00,61.0,56.1,29.85,SE,136,4.0,4.9,84,0.00,,,-99.99,FreeWX 2.03,2013-04-12 10:33:00,
2013-04-12 05:38:00,61.0,56.1,29.85,SE,140,4.0,5.4,84,0.00,,,-99.99,FreeWX 2.03,2013-04-12 10:38:00,
2013-04-12 05:43:00,60.8,55.9,29.85,SE,131,3.0,4.9,84,0.00,,,-99.99,FreeWX 2.03,2013-04-12 10:43:00,
2013-04-12 05:48:00,60.8,55.9,29.85,ESE,123,4.0,5.8,84,0.00,,,-99.99,FreeWX 2.03,2013-04-12 10:48:00,
2013-04-12 05:53:00,60.6,55.8,29.85,ESE,120,4.0,5.4,84,0.00,,,-99.99,FreeWX 2.03,2013-04-12 10:53:00,
2013-04-12 05:58:00,60.4,55.9,29.85,ESE,121,4.0,5.8,85,0.00,,,-99.99,FreeWX 2.03,2013-04-12 10:58:00,
2013-04-12 06:03:00,60.4,55.9,29.85,SE,134,4.0,5.4,85,0.00,,,-99.99,FreeWX 2.03,2013-04-12 11:03:00,
2013-04-12 06:08:00,60.4,55.9,29.85,SE,143,4.0,4.5,85,0.00,,,-99.99,FreeWX 2.03,2013-04-12 11:08:00,
2013-04-12 06:13:00,60.4,55.9,29.88,SE,139,3.0,4.9,85,0.00,,,-99.99,FreeWX 2.03,2013-04-12 11:13:00,
2013-04-12 06:18:00,60.4,55.9,29.88,SE,139,4.0,5.4,85,0.00,,,-99.99,FreeWX 2.03,2013-04-12 11:18:00,
2013-04-12 06:23:00,60.4,55.9,29.88,SE,143,4.0,5.8,85,0.00,,,-99.99,FreeWX 2.03,2013-04-12 11:23:00,
2013-04-12 06:28:00,60.4,55.9,29.88,SSE,153,4.0,6.9,85,0.00,,,-99.99,FreeWX 2.03,2013-04-12 11:28:00,
2013-04-12 06:33:00,60.4,55.9,29.88,SSE,158,4.0,6.9,85,0.00,,,-99.99,FreeWX 2.03,2013-04-12 11:33:00,
2013-04-12 06:38:00,60.4,56.3,29.88,SSE,151,4.0,5.8,86,0.00,,,-99.99,FreeWX 2.03,2013-04-12 11:38:00,
2013-04-12 06:43:00,60.6,56.5,29.88,SE,145,4.0,6.3,86,0.00,,,-99.99,FreeWX 2.03,2013-04-12 11:43:00,
2013-04-12 06:48:00,60.8,56.7,29.88,SE,141,4.0,6.3,86,0.00,,,-99.99,FreeWX 2.03,2013-04-12 11:48:00,
2013-04-12 06:53:00,60.8,56.7,29.88,SE,145,5.0,7.4,86,0.00,,,-99.99,FreeWX 2.03,2013-04-12 11:53:00,
2013-04-12 06:58:00,60.8,56.7,29.88,SSE,149,5.0,6.3,86,0.00,,,-99.99,FreeWX 2.03,2013-04-12 11:58:00,
2013-04-12 07:04:00,60.8,56.7,29.88,SSE,152,4.0,6.7,86,0.00,,,-99.99,FreeWX 2.03,2013-04-12 12:04:00,
2013-04-12 07:09:00,61.0,56.8,29.88,SSE,157,4.0,6.9,86,0.00,,,-99.99,FreeWX 2.03,2013-04-12 12:09:00,
2013-04-12 07:14:00,61.0,56.8,29.91,SSE,157,5.0,7.8,86,0.00,,,-99.99,FreeWX 2.03,2013-04-12 12:14:00,
2013-04-12 07:19:00,61.2,57.0,29.91,SSE,158,5.0,10.1,86,0.00,,,-99.99,FreeWX 2.03,2013-04-12 12:19:00,
2013-04-12 07:24:00,61.3,57.4,29.91,SSE,162,5.0,8.3,87,0.00,,,-99.99,FreeWX 2.03,2013-04-12 12:24:00,
2013-04-12 07:29:00,61.5,57.6,29.91,SSE,158,5.0,7.4,87,0.00,,,-99.99,FreeWX 2.03,2013-04-12 12:29:00,
2013-04-12 07:34:00,61.7,57.7,29.91,SSE,155,5.0,7.8,87,0.00,,,-99.99,FreeWX 2.03,2013-04-12 12:34:00,
2013-04-12 07:39:00,61.9,57.9,29.91,SSE,156,5.0,6.9,87,0.00,,,-99.99,FreeWX 2.03,2013-04-12 12:39:00,
2013-04-12 07:44:00,62.1,58.1,29.91,SSE,156,5.0,6.9,87,0.00,,,-99.99,FreeWX 2.03,2013-04-12 12:44:00,
2013-04-12 07:49:00,62.2,58.3,29.91,SSE,154,4.0,5.8,87,0.00,,,-99.99,FreeWX 2.03,2013-04-12 12:49:00,
2013-04-12 07:54:00,62.4,58.5,29.91,SSE,150,4.0,6.3,87,0.00,,,-99.99,FreeWX 2.03,2013-04-12 12:54:00,
2013-04-12 07:59:00,62.6,58.6,29.91,SE,146,4.0,7.8,87,0.00,,,-99.99,FreeWX 2.03,2013-04-12 12:59:00,
2013-04-12 08:04:00,62.8,58.8,29.91,SE,133,4.0,4.9,87,0.00,,,-99.99,FreeWX 2.03,2013-04-12 13:04:00,
2013-04-12 08:30:00,63.9,60.3,29.91,ESE,107,7.0,10.1,88,0.00,,,-99.99,FreeWX 2.03,2013-04-12 13:30:00,
2013-04-12 08:35:00,64.0,60.4,29.91,ESE,108,7.0,11.0,88,0.00,,,-99.99,FreeWX 2.03,2013-04-12 13:35:00,
2013-04-12 08:40:00,64.4,60.8,29.91,ESE,111,7.0,11.6,88,0.00,,,-99.99,FreeWX 2.03,2013-04-12 13:40:00,
2013-04-12 08:45:00,64.6,61.0,29.91,ESE,117,7.0,10.5,88,0.00,,,-99.99,FreeWX 2.03,2013-04-12 13:45:00,
2013-04-12 08:50:00,64.9,61.0,29.91,ESE,116,7.0,11.0,87,0.00,,,-99.99,FreeWX 2.03,2013-04-12 13:50:00,
2013-04-12 08:55:00,65.1,61.2,29.91,ESE,115,6.0,9.2,87,0.00,,,-99.99,FreeWX 2.03,2013-04-12 13:55:00,
2013-04-12 09:00:00,65.5,61.2,29.91,ESE,115,7.0,11.6,86,0.00,,,-99.99,FreeWX 2.03,2013-04-12 14:00:00,
2013-04-12 09:05:00,65.7,61.3,29.91,ESE,110,9.0,13.9,86,0.00,,,-99.99,FreeWX 2.03,2013-04-12 14:05:00,
2013-04-12 09:10:00,65.8,61.2,29.91,ESE,110,9.0,14.8,85,0.00,,,-99.99,FreeWX 2.03,2013-04-12 14:10:00,
2013-04-12 09:15:00,66.0,61.0,29.91,ESE,107,8.0,12.5,84,0.00,,,-99.99,FreeWX 2.03,2013-04-12 14:15:00,
2013-04-12 09:20:00,66.2,60.8,29.91,ESE,106,9.0,15.2,83,0.00,,,-99.99,FreeWX 2.03,2013-04-12 14:20:00,
2013-04-12 09:25:00,66.6,61.2,29.94,ESE,109,10.0,15.2,83,0.00,,,-99.99,FreeWX 2.03,2013-04-12 14:25:00,
2013-04-12 09:30:00,66.7,61.3,29.94,ESE,105,9.0,10.5,83,0.00,,,-99.99,FreeWX 2.03,2013-04-12 14:30:00,
2013-04-12 09:35:00,66.7,61.3,29.94,East,101,7.0,11.0,83,0.00,,,-99.99,FreeWX 2.03,2013-04-12 14:35:00,
2013-04-12 09:40:00,66.9,61.5,29.94,East,100,7.0,13.0,83,0.00,,,-99.99,FreeWX 2.03,2013-04-12 14:40:00,
2013-04-12 09:45:00,66.9,61.5,29.94,ESE,102,7.0,12.5,83,0.00,,,-99.99,FreeWX 2.03,2013-04-12 14:45:00,
2013-04-12 09:50:00,67.1,61.3,29.94,ESE,102,8.0,13.9,82,0.00,,,-99.99,FreeWX 2.03,2013-04-12 14:50:00,
2013-04-12 09:55:00,67.3,61.5,29.94,East,97,8.0,14.8,82,0.00,,,-99.99,FreeWX 2.03,2013-04-12 14:55:00,
2013-04-12 10:00:00,67.5,61.7,29.94,East,100,8.0,13.0,82,0.00,,,-99.99,FreeWX 2.03,2013-04-12 15:00:00,
2013-04-12 10:05:00,67.8,62.1,29.94,ESE,108,8.0,12.5,82,0.00,,,-99.99,FreeWX 2.03,2013-04-12 15:05:00,
2013-04-12 10:10:00,68.2,62.4,29.94,ESE,109,9.0,15.4,82,0.00,,,-99.99,FreeWX 2.03,2013-04-12 15:10:00,
2013-04-12 10:15:00,68.4,62.6,29.94,ESE,104,9.0,14.8,82,0.00,,,-99.99,FreeWX 2.03,2013-04-12 15:15:00,
2013-04-12 10:20:00,68.5,62.4,29.94,East,99,8.0,14.3,81,0.00,,,-99.99,FreeWX 2.03,2013-04-12 15:20:00,
2013-04-12 10:25:00,68.7,62.6,29.94,East,101,8.0,14.8,81,0.00,,,-99.99,FreeWX 2.03,2013-04-12 15:25:00,
2013-04-12 10:30:00,69.1,63.0,29.94,ESE,107,8.0,12.5,81,0.00,,,-99.99,FreeWX 2.03,2013-04-12 15:30:00,
2013-04-12 10:35:00,69.4,63.0,29.94,ESE,106,8.0,14.3,80,0.00,,,-99.99,FreeWX 2.03,2013-04-12 15:35:00,
2013-04-12 10:40:00,69.8,63.3,29.94,ESE,105,9.0,15.4,80,0.00,,,-99.99,FreeWX 2.03,2013-04-12 15:40:00,
2013-04-12 10:45:00,70.5,63.7,29.94,ESE,108,9.0,15.4,79,0.00,,,-99.99,FreeWX 2.03,2013-04-12 15:45:00,
2013-04-12 10:50:00,71.2,64.0,29.94,ESE,109,9.0,16.3,78,0.00,,,-99.99,FreeWX 2.03,2013-04-12 15:50:00,
2013-04-12 10:55:00,72.1,64.2,29.94,ESE,106,10.0,14.8,76,0.00,,,-99.99,FreeWX 2.03,2013-04-12 15:55:00,
2013-04-12 11:00:00,72.7,63.9,29.94,ESE,103,10.0,16.3,74,0.00,,,-99.99,FreeWX 2.03,2013-04-12 16:00:00,
2013-04-12 11:05:00,73.2,63.7,29.94,ESE,103,10.0,15.2,72,0.00,,,-99.99,FreeWX 2.03,2013-04-12 16:05:00,
2013-04-12 11:10:00,73.6,63.1,29.94,ESE,107,10.0,13.9,70,0.00,,,-99.99,FreeWX 2.03,2013-04-12 16:10:00,
2013-04-12 11:15:00,73.8,62.6,29.94,ESE,108,11.0,18.1,68,0.00,,,-99.99,FreeWX 2.03,2013-04-12 16:15:00,
2013-04-12 11:20:00,73.9,61.9,29.94,ESE,103,11.0,15.9,66,0.00,,,-99.99,FreeWX 2.03,2013-04-12 16:20:00,
2013-04-12 11:25:00,73.9,61.3,29.94,ESE,103,10.0,15.4,65,0.00,,,-99.99,FreeWX 2.03,2013-04-12 16:25:00,
2013-04-12 11:30:00,73.9,61.0,29.94,ESE,106,10.0,16.8,64,0.00,,,-99.99,FreeWX 2.03,2013-04-12 16:30:00,
2013-04-12 11:35:00,73.9,60.6,29.94,ESE,108,10.0,16.3,63,0.00,,,-99.99,FreeWX 2.03,2013-04-12 16:35:00,
2013-04-12 11:40:00,74.5,61.0,29.94,ESE,111,10.0,16.8,63,0.00,,,-99.99,FreeWX 2.03,2013-04-12 16:40:00,
2013-04-12 11:45:00,74.7,60.8,29.94,ESE,109,10.0,15.9,62,0.00,,,-99.99,FreeWX 2.03,2013-04-12 16:45:00,
2013-04-12 11:50:00,74.8,60.4,29.94,ESE,106,10.0,15.9,61,0.00,,,-99.99,FreeWX 2.03,2013-04-12 16:50:00,
2013-04-12 11:55:00,74.8,59.5,29.94,ESE,106,10.0,14.3,59,0.00,,,-99.99,FreeWX 2.03,2013-04-12 16:55:00,
2013-04-12 12:00:00,74.8,59.5,29.94,ESE,109,10.0,15.9,59,0.00,,,-99.99,FreeWX 2.03,2013-04-12 17:00:00,
2013-04-12 12:05:00,75.0,59.7,29.94,ESE,107,11.0,17.2,59,0.00,,,-99.99,FreeWX 2.03,2013-04-12 17:05:00,
2013-04-12 12:10:00,75.2,60.3,29.94,ESE,105,10.0,16.3,60,0.00,,,-99.99,FreeWX 2.03,2013-04-12 17:10:00,
2013-04-12 12:15:00,75.2,60.3,29.94,ESE,107,10.0,16.8,60,0.00,,,-99.99,FreeWX 2.03,2013-04-12 17:15:00,
2013-04-12 12:20:00,75.0,59.7,29.94,ESE,109,10.0,17.7,59,0.00,,,-99.99,FreeWX 2.03,2013-04-12 17:20:00,
2013-04-12 12:25:00,74.8,59.5,29.94,ESE,106,11.0,17.7,59,0.00,,,-99.99,FreeWX 2.03,2013-04-12 17:25:00,
2013-04-12 12:30:00,74.7,58.8,29.94,ESE,106,10.0,17.2,58,0.00,,,-99.99,FreeWX 2.03,2013-04-12 17:30:00,
2013-04-12 12:35:00,74.8,59.5,29.94,ESE,108,10.0,17.2,59,0.00,,,-99.99,FreeWX 2.03,2013-04-12 17:35:00,
2013-04-12 12:40:00,75.0,59.7,29.94,ESE,102,11.0,16.3,59,0.00,,,-99.99,FreeWX 2.03,2013-04-12 17:40:00,
2013-04-12 12:45:00,75.0,59.7,29.94,East,101,11.0,19.5,59,0.00,,,-99.99,FreeWX 2.03,2013-04-12 17:45:00,
2013-04-12 12:50:00,75.2,59.9,29.94,ESE,104,11.0,16.8,59,0.00,,,-99.99,FreeWX 2.03,2013-04-12 17:50:00,
2013-04-12 12:56:00,75.2,59.4,29.91,ESE,109,10.0,14.3,58,0.00,,,-99.99,FreeWX 2.03,2013-04-12 17:56:00,
2013-04-12 13:06:00,75.2,59.4,29.91,ESE,107,10.0,16.3,58,0.00,,,-99.99,FreeWX 2.03,2013-04-12 18:06:00,
2013-04-12 13:11:00,75.2,59.4,29.91,ESE,108,10.0,17.2,58,0.00,,,-99.99,FreeWX 2.03,2013-04-12 18:11:00,
2013-04-12 13:16:00,75.2,58.8,29.91,ESE,104,11.0,16.3,57,0.00,,,-99.99,FreeWX 2.03,2013-04-12 18:16:00,
2013-04-12 14:30:00,74.7,58.5,29.91,ESE,111,10.0,18.1,57,0.00,,,-99.99,FreeWX 2.03,2013-04-12 19:30:00,
2013-04-12 14:35:00,74.7,58.5,29.91,ESE,111,11.0,16.3,57,0.00,,,-99.99,FreeWX 2.03,2013-04-12 19:35:00,
2013-04-12 14:40:00,74.5,58.3,29.91,ESE,109,12.0,17.7,57,0.00,,,-99.99,FreeWX 2.03,2013-04-12 19:40:00,
2013-04-12 14:45:00,74.5,58.3,29.91,ESE,107,13.0,18.1,57,0.00,,,-99.99,FreeWX 2.03,2013-04-12 19:45:00,
2013-04-12 14:50:00,74.5,58.3,29.91,ESE,107,12.0,19.5,57,0.00,,,-99.99,FreeWX 2.03,2013-04-12 19:50:00,
2013-04-12 14:55:00,74.5,58.6,29.88,ESE,107,12.0,19.0,58,0.00,,,-99.99,FreeWX 2.03,2013-04-12 19:55:00,
2013-04-12 15:00:00,74.7,58.8,29.88,ESE,107,12.0,18.6,58,0.00,,,-99.99,FreeWX 2.03,2013-04-12 20:00:00,
2013-04-12 15:05:00,74.5,58.3,29.88,ESE,113,12.0,18.1,57,0.00,,,-99.99,FreeWX 2.03,2013-04-12 20:05:00,
2013-04-12 15:10:00,74.5,58.6,29.88,ESE,111,11.0,17.2,58,0.00,,,-99.99,FreeWX 2.03,2013-04-12 20:10:00,
2013-04-12 15:15:00,74.5,58.6,29.88,ESE,109,12.0,19.5,58,0.00,,,-99.99,FreeWX 2.03,2013-04-12 20:15:00,
2013-04-12 15:20:00,74.3,58.5,29.88,ESE,113,12.0,19.0,58,0.00,,,-99.99,FreeWX 2.03,2013-04-12 20:20:00,
2013-04-12 15:25:00,74.3,58.5,29.88,ESE,113,13.0,19.9,58,0.00,,,-99.99,FreeWX 2.03,2013-04-12 20:25:00,
2013-04-12 15:30:00,74.3,59.0,29.88,ESE,108,13.0,18.1,59,0.00,,,-99.99,FreeWX 2.03,2013-04-12 20:30:00,
2013-04-12 15:35:00,74.5,59.7,29.88,ESE,107,11.0,18.6,60,0.00,,,-99.99,FreeWX 2.03,2013-04-12 20:35:00,
2013-04-12 15:40:00,74.5,59.2,29.88,ESE,109,12.0,20.6,59,0.00,,,-99.99,FreeWX 2.03,2013-04-12 20:40:00,
2013-04-12 15:45:00,74.3,59.0,29.88,ESE,109,12.0,19.5,59,0.00,,,-99.99,FreeWX 2.03,2013-04-12 20:45:00,
2013-04-12 15:50:00,74.1,59.4,29.88,ESE,110,12.0,19.0,60,0.00,,,-99.99,FreeWX 2.03,2013-04-12 20:50:00,
2013-04-12 15:55:00,74.1,59.4,29.88,ESE,109,12.0,18.1,60,0.00,,,-99.99,FreeWX 2.03,2013-04-12 20:55:00,
2013-04-12 16:00:00,74.1,58.8,29.88,ESE,112,12.0,19.5,59,0.00,,,-99.99,FreeWX 2.03,2013-04-12 21:00:00,
2013-04-12 16:05:00,74.1,59.4,29.88,ESE,109,12.0,19.5,60,0.00,,,-99.99,FreeWX 2.03,2013-04-12 21:05:00,
2013-04-12 16:10:00,74.3,59.5,29.88,ESE,106,12.0,16.3,60,0.00,,,-99.99,FreeWX 2.03,2013-04-12 21:10:00,
2013-04-12 16:15:00,74.1,59.4,29.88,ESE,109,12.0,22.4,60,0.00,,,-99.99,FreeWX 2.03,2013-04-12 21:15:00,
2013-04-12 16:20:00,74.3,59.9,29.88,ESE,108,12.0,16.8,61,0.00,,,-99.99,FreeWX 2.03,2013-04-12 21:20:00,
2013-04-12 16:25:00,74.1,59.7,29.85,ESE,109,12.0,20.1,61,0.00,,,-99.99,FreeWX 2.03,2013-04-12 21:25:00,
2013-04-12 16:30:00,74.1,60.3,29.85,ESE,110,12.0,19.5,62,0.00,,,-99.99,FreeWX 2.03,2013-04-12 21:30:00,
2013-04-12 16:35:00,74.1,60.3,29.85,ESE,111,12.0,19.9,62,0.00,,,-99.99,FreeWX 2.03,2013-04-12 21:35:00,
2013-04-12 16:40:00,73.9,60.6,29.85,ESE,109,12.0,19.5,63,0.00,,,-99.99,FreeWX 2.03,2013-04-12 21:40:00,
2013-04-12 16:45:00,73.8,60.4,29.85,ESE,107,12.0,21.5,63,0.00,,,-99.99,FreeWX 2.03,2013-04-12 21:45:00,
2013-04-12 16:50:00,73.8,60.4,29.85,ESE,107,13.0,21.0,63,0.00,,,-99.99,FreeWX 2.03,2013-04-12 21:50:00,
2013-04-12 16:55:00,73.9,61.0,29.85,ESE,107,14.0,21.9,64,0.00,,,-99.99,FreeWX 2.03,2013-04-12 21:55:00,
2013-04-12 17:00:00,73.9,61.0,29.85,ESE,106,13.0,19.9,64,0.00,,,-99.99,FreeWX 2.03,2013-04-12 22:00:00,
2013-04-12 17:05:00,73.6,60.6,29.85,ESE,108,14.0,21.9,64,0.00,,,-99.99,FreeWX 2.03,2013-04-12 22:05:00,
2013-04-12 17:10:00,73.4,61.0,29.85,ESE,112,13.0,20.1,65,0.00,,,-99.99,FreeWX 2.03,2013-04-12 22:10:00,
2013-04-12 17:15:00,73.2,60.8,29.85,ESE,111,12.0,18.1,65,0.00,,,-99.99,FreeWX 2.03,2013-04-12 22:15:00,
2013-04-12 17:20:00,72.9,60.4,29.85,ESE,113,11.0,16.8,65,0.00,,,-99.99,FreeWX 2.03,2013-04-12 22:20:00,
2013-04-12 17:25:00,72.7,60.6,29.85,ESE,118,10.0,16.8,66,0.00,,,-99.99,FreeWX 2.03,2013-04-12 22:25:00,
2013-04-12 17:30:00,72.5,60.4,29.85,ESE,119,12.0,19.0,66,0.00,,,-99.99,FreeWX 2.03,2013-04-12 22:30:00,
2013-04-12 17:35:00,72.5,61.0,29.85,ESE,118,12.0,21.9,67,0.00,,,-99.99,FreeWX 2.03,2013-04-12 22:35:00,
2013-04-12 17:40:00,72.7,61.2,29.85,ESE,120,12.0,19.9,67,0.00,,,-99.99,FreeWX 2.03,2013-04-12 22:40:00,
2013-04-12 17:45:00,72.9,61.2,29.85,ESE,119,12.0,20.6,67,0.00,,,-99.99,FreeWX 2.03,2013-04-12 22:45:00,
2013-04-12 17:50:00,72.9,60.8,29.85,ESE,122,12.0,21.5,66,0.00,,,-99.99,FreeWX 2.03,2013-04-12 22:50:00,
2013-04-12 17:55:00,72.7,60.3,29.85,SE,124,13.0,21.0,65,0.00,,,-99.99,FreeWX 2.03,2013-04-12 22:55:00,
2013-04-12 18:00:00,72.7,60.6,29.85,ESE,120,14.0,21.5,66,0.00,,,-99.99,FreeWX 2.03,2013-04-12 23:00:00,
2013-04-12 18:05:00,72.7,60.6,29.85,ESE,121,13.0,19.9,66,0.00,,,-99.99,FreeWX 2.03,2013-04-12 23:05:00,
2013-04-12 18:10:00,72.7,60.6,29.85,SE,124,12.0,19.0,66,0.00,,,-99.99,FreeWX 2.03,2013-04-12 23:10:00,
2013-04-12 18:15:00,72.9,60.8,29.85,SE,127,11.0,16.8,66,0.00,,,-99.99,FreeWX 2.03,2013-04-12 23:15:00,
2013-04-12 18:20:00,72.7,60.6,29.85,SE,127,10.0,19.5,66,0.00,,,-99.99,FreeWX 2.03,2013-04-12 23:20:00,
2013-04-12 18:25:00,72.3,60.3,29.85,SE,127,11.0,18.6,66,0.00,,,-99.99,FreeWX 2.03,2013-04-12 23:25:00,
2013-04-12 18:30:00,72.3,60.8,29.85,ESE,123,11.0,17.2,67,0.00,,,-99.99,FreeWX 2.03,2013-04-12 23:30:00,
2013-04-12 18:35:00,72.1,60.6,29.85,ESE,119,11.0,16.3,67,0.00,,,-99.99,FreeWX 2.03,2013-04-12 23:35:00,
2013-04-12 18:40:00,72.1,61.0,29.85,ESE,122,10.0,19.0,68,0.00,,,-99.99,FreeWX 2.03,2013-04-12 23:40:00,
2013-04-12 18:45:00,71.6,60.8,29.85,SE,124,11.0,17.7,69,0.00,,,-99.99,FreeWX 2.03,2013-04-12 23:45:00,
2013-04-12 18:50:00,71.2,61.0,29.85,ESE,121,11.0,17.2,70,0.00,,,-99.99,FreeWX 2.03,2013-04-12 23:50:00,
2013-04-12 18:55:00,70.9,61.0,29.85,ESE,121,11.0,19.5,71,0.00,,,-99.99,FreeWX 2.03,2013-04-12 23:55:00,
2013-04-12 19:00:00,70.7,61.2,29.85,SE,126,10.0,16.8,72,0.00,,,-99.99,FreeWX 2.03,2013-04-13 00:00:00,
2013-04-12 19:05:00,70.7,61.2,29.85,SE,131,10.0,17.2,72,0.00,,,-99.99,FreeWX 2.03,2013-04-13 00:05:00,
2013-04-12 19:10:00,70.5,61.0,29.85,SE,132,10.0,16.8,72,0.00,,,-99.99,FreeWX 2.03,2013-04-13 00:10:00,
2013-04-12 19:15:00,70.3,60.8,29.85,SE,130,11.0,19.5,72,0.00,,,-99.99,FreeWX 2.03,2013-04-13 00:15:00,
2013-04-12 19:20:00,70.2,60.6,29.85,SE,133,12.0,16.8,72,0.00,,,-99.99,FreeWX 2.03,2013-04-13 00:20:00,
2013-04-12 19:25:00,70.2,60.6,29.85,SE,135,11.0,19.5,72,0.00,,,-99.99,FreeWX 2.03,2013-04-13 00:25:00,
2013-04-12 19:30:00,70.0,60.4,29.85,SE,131,11.0,20.1,72,0.00,,,-99.99,FreeWX 2.03,2013-04-13 00:30:00,
2013-04-12 19:35:00,70.0,60.4,29.85,SE,132,11.0,18.1,72,0.00,,,-99.99,FreeWX 2.03,2013-04-13 00:35:00,
2013-04-12 19:40:00,69.8,60.4,29.85,SE,135,11.0,17.7,72,0.00,,,-99.99,FreeWX 2.03,2013-04-13 00:40:00,
2013-04-12 19:45:00,69.6,60.6,29.85,SE,136,10.0,16.8,73,0.00,,,-99.99,FreeWX 2.03,2013-04-13 00:45:00,
2013-04-12 19:50:00,69.4,60.8,29.85,SE,137,10.0,18.1,74,0.00,,,-99.99,FreeWX 2.03,2013-04-13 00:50:00,
2013-04-12 19:55:00,69.4,60.8,29.85,SE,141,10.0,16.3,74,0.00,,,-99.99,FreeWX 2.03,2013-04-13 00:55:00,
2013-04-12 20:00:00,69.3,60.6,29.85,SE,142,11.0,15.9,74,0.00,,,-99.99,FreeWX 2.03,2013-04-13 01:00:00,
2013-04-12 20:05:00,68.9,60.3,29.85,SE,138,11.0,18.1,74,0.00,,,-99.99,FreeWX 2.03,2013-04-13 01:05:00,
2013-04-12 20:11:00,68.9,60.6,29.85,SE,134,12.0,19.9,75,0.00,,,-99.99,FreeWX 2.03,2013-04-13 01:11:00,
2013-04-12 20:16:00,68.7,60.4,29.85,SE,136,11.0,16.3,75,0.00,,,-99.99,FreeWX 2.03,2013-04-13 01:16:00,
2013-04-12 20:21:00,68.7,60.8,29.85,SE,140,10.0,14.8,76,0.00,,,-99.99,FreeWX 2.03,2013-04-13 01:21:00,
2013-04-12 20:26:00,68.7,60.8,29.85,SE,140,11.0,19.0,76,0.00,,,-99.99,FreeWX 2.03,2013-04-13 01:26:00,
2013-04-12 20:31:00,68.5,60.6,29.85,SE,143,11.0,17.2,76,0.00,,,-99.99,FreeWX 2.03,2013-04-13 01:31:00,
2013-04-12 20:36:00,68.4,60.4,29.85,SE,145,10.0,17.7,76,0.00,,,-99.99,FreeWX 2.03,2013-04-13 01:36:00,
2013-04-12 20:41:00,68.4,60.8,29.85,SE,146,10.0,15.4,77,0.00,,,-99.99,FreeWX 2.03,2013-04-13 01:41:00,
2013-04-12 20:46:00,68.2,60.6,29.85,SSE,147,10.0,16.3,77,0.00,,,-99.99,FreeWX 2.03,2013-04-13 01:46:00,
2013-04-12 20:51:00,68.2,61.0,29.85,SE,146,10.0,15.4,78,0.00,,,-99.99,FreeWX 2.03,2013-04-13 01:51:00,
2013-04-12 20:56:00,68.2,61.3,29.85,SE,146,11.0,16.3,79,0.00,,,-99.99,FreeWX 2.03,2013-04-13 01:56:00,
2013-04-12 21:01:00,68.2,61.3,29.85,SE,146,11.0,16.3,79,0.00,,,-99.99,FreeWX 2.03,2013-04-13 02:01:00,
2013-04-12 21:06:00,68.4,61.9,29.85,SE,146,11.0,18.1,80,0.00,,,-99.99,FreeWX 2.03,2013-04-13 02:06:00,
2013-04-12 21:16:00,68.2,61.7,29.85,SSE,150,11.0,19.0,80,0.00,,,-99.99,FreeWX 2.03,2013-04-13 02:16:00,
2013-04-12 21:27:00,68.0,61.9,29.88,SSE,152,10.0,15.4,81,0.00,,,-99.99,FreeWX 2.03,2013-04-13 02:27:00,
2013-04-12 21:32:00,67.8,61.7,29.88,SSE,148,10.0,16.8,81,0.00,,,-99.99,FreeWX 2.03,2013-04-13 02:32:00,
2013-04-12 21:37:00,67.8,62.1,29.88,SSE,149,10.0,18.1,82,0.00,,,-99.99,FreeWX 2.03,2013-04-13 02:37:00,
2013-04-12 21:42:00,67.8,62.4,29.88,SSE,150,11.0,17.2,83,0.00,,,-99.99,FreeWX 2.03,2013-04-13 02:42:00,
2013-04-12 21:47:00,68.0,62.6,29.88,SSE,152,10.0,15.9,83,0.00,,,-99.99,FreeWX 2.03,2013-04-13 02:47:00,
2013-04-12 21:52:00,68.2,62.8,29.88,SSE,155,9.0,13.9,83,0.00,,,-99.99,FreeWX 2.03,2013-04-13 02:52:00,
2013-04-12 21:57:00,68.2,62.8,29.88,SSE,157,9.0,13.0,83,0.00,,,-99.99,FreeWX 2.03,2013-04-13 02:57:00,
2013-04-12 22:02:00,68.0,62.2,29.88,SSE,158,9.0,14.8,82,0.00,,,-99.99,FreeWX 2.03,2013-04-13 03:02:00,
2013-04-12 22:07:00,67.8,62.1,29.88,SSE,160,9.0,13.9,82,0.00,,,-99.99,FreeWX 2.03,2013-04-13 03:07:00,
2013-04-12 22:12:00,67.8,62.1,29.91,SSE,160,9.0,12.5,82,0.00,,,-99.99,FreeWX 2.03,2013-04-13 03:12:00,
2013-04-12 22:17:00,67.8,62.1,29.91,SSE,155,8.0,13.0,82,0.00,,,-99.99,FreeWX 2.03,2013-04-13 03:17:00,
2013-04-12 22:22:00,67.8,62.1,29.91,SSE,157,8.0,13.4,82,0.00,,,-99.99,FreeWX 2.03,2013-04-13 03:22:00,
2013-04-12 22:27:00,67.8,62.1,29.91,SSE,160,8.0,11.6,82,0.00,,,-99.99,FreeWX 2.03,2013-04-13 03:27:00,
2013-04-12 22:32:00,67.8,62.1,29.91,SSE,158,8.0,13.0,82,0.00,,,-99.99,FreeWX 2.03,2013-04-13 03:32:00,
2013-04-12 22:37:00,67.6,61.9,29.91,SSE,158,9.0,12.5,82,0.00,,,-99.99,FreeWX 2.03,2013-04-13 03:37:00,
2013-04-12 22:42:00,67.8,62.4,29.91,SSE,159,8.0,12.5,83,0.00,,,-99.99,FreeWX 2.03,2013-04-13 03:42:00,
2013-04-12 22:47:00,67.8,62.4,29.91,SSE,159,8.0,13.0,83,0.00,,,-99.99,FreeWX 2.03,2013-04-13 03:47:00,
2013-04-12 22:52:00,67.8,62.4,29.91,SSE,161,8.0,12.1,83,0.00,,,-99.99,FreeWX 2.03,2013-04-13 03:52:00,
2013-04-12 22:57:00,67.8,62.4,29.91,SSE,162,8.0,12.1,83,0.00,,,-99.99,FreeWX 2.03,2013-04-13 03:57:00,
2013-04-12 23:02:00,67.6,62.2,29.91,SSE,162,7.0,11.2,83,0.00,,,-99.99,FreeWX 2.03,2013-04-13 04:02:00,
2013-04-12 23:07:00,67.6,62.6,29.91,SSE,165,7.0,11.6,84,0.00,,,-99.99,FreeWX 2.03,2013-04-13 04:07:00,
2013-04-12 23:17:00,67.5,62.8,29.91,South,170,7.0,10.1,85,0.00,,,-99.99,FreeWX 2.03,2013-04-13 04:17:00,
2013-04-12 23:22:00,67.5,62.8,29.91,South,171,6.0,11.6,85,0.00,,,-99.99,FreeWX 2.03,2013-04-13 04:22:00,
2013-04-12 23:27:00,67.5,63.1,29.91,South,173,6.0,10.5,86,0.00,,,-99.99,FreeWX 2.03,2013-04-13 04:27:00,
2013-04-12 23:32:00,67.3,63.0,29.91,South,172,7.0,10.5,86,0.00,,,-99.99,FreeWX 2.03,2013-04-13 04:32:00,
2013-04-12 23:37:00,67.5,63.5,29.91,South,170,7.0,9.6,87,0.00,,,-99.99,FreeWX 2.03,2013-04-13 04:37:00,
2013-04-12 23:42:00,67.5,63.5,29.91,South,170,6.0,11.2,87,0.00,,,-99.99,FreeWX 2.03,2013-04-13 04:42:00,
2013-04-12 23:47:00,67.5,63.5,29.91,South,172,6.0,10.1,87,0.00,,,-99.99,FreeWX 2.03,2013-04-13 04:47:00,
2013-04-12 23:52:00,67.5,63.5,29.91,South,173,6.0,10.5,87,0.00,,,-99.99,FreeWX 2.03,2013-04-13 04:52:00,
2013-04-12 23:57:00,67.5,63.5,29.91,South,173,6.0,10.1,87,0.00,,,-99.99,FreeWX 2.03,2013-04-13 04:57:00,